SB KEPS @ AMSAT $ORB25311.1 2Line Orbital Elements 25311.AMSAT QST de W1STR AMSAT Orbital Elements for Amateur Satellites in TLE Format From Orbital Analysis Office New England Sci-Tech STEM Education Center Natick MA November 07, 2025 To all radio amateurs These element sets describe the orbits of various satellites in use by the amateur radio community. For details see: www.amsat.org/keplerian-elements-formats/ A daily update of element sets is available at: www.amsat.org/tle/daily-bulletin.txt or without bulletin text: www.amsat.org/tle/dailytle.txt AO-07 1 07530U 74089B 25310.25700343 -.00000039 00000-0 45978-4 0 9998 2 07530 101.9978 316.1385 0012112 195.7119 178.5593 12.53693089332584 UO-11 1 14781U 84021B 25310.73209277 .00002666 00000-0 28241-3 0 9994 2 14781 97.7758 274.3353 0007177 187.9636 172.1469 14.89954849223991 AO-27 1 22825U 93061C 25310.63636395 .00000216 00000-0 99486-4 0 9999 2 22825 98.7195 12.8096 0009004 39.6056 320.5783 14.30856090675178 FO-29 1 24278U 96046B 25310.61877168 .00000004 00000-0 43178-4 0 9994 2 24278 98.5494 184.5955 0349242 313.8919 43.3861 13.53259096443064 NOAA-15 1 25338U 98030A 25310.79059291 .00000246 00000-0 11861-3 0 9996 2 25338 98.5257 332.2476 0009115 280.4594 79.5560 14.27048240429575 GO-32 1 25397U 98043D 25310.45987972 .00000131 00000-0 76791-4 0 9991 2 25397 98.9887 292.8399 0002114 115.7487 244.3910 14.24361123419622 ISS 1 25544U 98067A 25310.42133036 .00012321 00000-0 22509-3 0 9993 2 25544 51.6334 322.2688 0005132 23.2406 336.8814 15.49793555537228 NO-44 1 26931U 01043C 25310.48349747 .00000320 00000-0 15054-3 0 9999 2 26931 67.0493 100.2355 0007194 271.9389 88.0889 14.31821852258560 SO-50 1 27607U 02058C 25309.83351354 .00001845 00000-0 23988-3 0 9999 2 27607 64.5517 99.6443 0069931 303.4276 56.0154 14.82172765231347 CO-55 1 27844U 03031E 25310.82932064 .00000520 00000-0 24479-3 0 9993 2 27844 98.6778 317.1939 0010650 109.2842 250.9489 14.24132171160025 CO-57 1 27848U 03031J 25310.49730260 .00000437 00000-0 21133-3 0 9995 2 27848 98.6805 316.7566 0010368 126.2742 233.9396 14.23447143159691 RS-22 1 27939U 03042A 25310.85501652 .00002082 00000-0 33377-3 0 9990 2 27939 98.3368 124.1050 0010278 252.1599 244.2461 14.72808949182818 CO-58 1 28895U 05043F 25310.68140874 .00003195 00000-0 52032-3 0 9996 2 28895 98.2707 97.1604 0014270 187.1346 172.9659 14.71669935 69014 CO-65 1 32785U 08021C 25310.84316182 .00008752 00000-0 59779-3 0 9992 2 32785 97.8048 283.4484 0011724 68.2270 292.0203 15.06363378951685 CO-66 1 32791U 08021J 25310.40655433 .00023430 00000-0 98318-3 0 9998 2 32791 97.7412 294.3552 0005097 43.9895 316.1746 15.23471331953266 RS-30 1 32953U 08025A 25310.81713931 .00000033 00000-0 16255-3 0 9999 2 32953 82.4995 133.7679 0019942 77.5963 282.7347 12.43170287792061 NOAA-19 1 33591U 09005A 25310.77552706 .00000110 00000-0 82726-4 0 9996 2 33591 98.9812 16.2032 0012855 301.4744 58.5171 14.13424371863068 SRMSAT 1 37841U 11058D 25310.39782404 .00000518 00000-0 13763-3 0 9993 2 37841 19.9732 327.9011 0011534 273.0563 133.5974 14.11492216726300 ZACUBE-1 1 39417U 13066B 25310.80753584 .00009017 00000-0 74536-3 0 9996 2 39417 97.7985 267.3250 0041329 269.9840 89.6646 14.98497613647393 Delfi-N3xt 1 39428U 13066N 25310.71333331 .00012614 00000-0 12060-2 0 9992 2 39428 97.8316 226.8553 0078781 224.5017 134.9857 14.91026252641421 GOMX-1 1 39430U 13066Q 25310.85624979 .00002936 00000-0 45253-3 0 9998 2 39430 97.6625 160.2259 0132327 71.2801 290.2713 14.68341999637271 LO-74 1 39440U 13066AA 25310.65031760 .00008609 00000-0 83715-3 0 9995 2 39440 97.8653 254.3949 0061874 45.5839 315.0420 14.91358426643793 AO-73 1 39444U 13066AE 25310.63183635 .00012904 00000-0 89683-3 0 9999 2 39444 97.8025 273.5009 0037316 238.0768 121.6827 15.05090312646130 DTUSAT-2 1 40030U 14033W 25310.18821931 .00010459 00000-0 63263-3 0 9994 2 40030 98.0723 289.6280 0006468 278.6251 81.4244 15.10835734618968 EO-80 1 40032U 14033Y 25310.46542616 .00011863 00000-0 71534-3 0 9997 2 40032 98.0608 289.3654 0006765 198.4836 161.6147 15.10909528618980 LILACSAT-2 1 40908U 15049K 25310.83146714 .00020566 00000-0 46433-3 0 9997 2 40908 97.4951 335.1403 0007827 354.0596 6.0557 15.43207429561364 IO-86 1 40931U 15052B 25151.18580175 .00001241 00000-0 78118-4 0 9996 2 40931 6.0006 24.0987 0012733 338.8432 21.1169 14.78805930523159 Horyu-4 1 41340U 16012D 25310.78133735 .00056071 00000-0 10854-2 0 9999 2 41340 30.9935 196.0925 0004428 229.6375 130.3886 15.46435839535973 Lapan A3 1 41603U 16040E 25310.88608676 .00005866 00000-0 19708-3 0 9998 2 41603 97.1424 309.7578 0012820 91.8259 268.4451 15.31128605520772 CAS-2T 1 41847U 16066G 25310.66308823 .00002169 00000-0 31227-3 0 9996 2 41847 98.4076 23.7563 0345414 84.2891 279.7571 14.44000096472671 TechnoSat 1 42829U 17042E 25310.51627463 .00006208 00000-0 46371-3 0 9994 2 42829 97.4049 112.2997 0020107 130.4300 229.8684 15.02988048453233 AO-91 1 43017U 17073E 25310.62123242 .00016572 00000-0 79449-3 0 9993 2 43017 97.4985 177.6597 0164967 15.0200 345.5842 15.07682308431797 S-Net D 1 43186U 18014G 25310.66831167 .00010039 00000-0 56062-3 0 9990 2 43186 97.5484 212.0648 0010750 71.0446 289.1949 15.13675539425063 S-Net B 1 43187U 18014H 25310.67580014 .00010189 00000-0 56921-3 0 9994 2 43187 97.5489 212.0510 0011294 67.0032 293.2389 15.13650616425060 S-Net A 1 43188U 18014J 25310.66816535 .00009912 00000-0 55340-3 0 9990 2 43188 97.5499 212.2144 0011262 67.5732 292.6691 15.13680794425063 S-Net C 1 43189U 18014K 25310.67864247 .00010243 00000-0 57214-3 0 9996 2 43189 97.5513 212.2642 0012563 60.9083 299.3405 15.13643874423619 Ten-Koh 1 43677U 18084G 25310.46204343 .00004561 00000-0 35790-3 0 9998 2 43677 98.0674 128.6414 0009339 129.5239 230.6811 15.01440256382725 PO-101 1 43678U 18084H 25310.81339759 .00003124 00000-0 26180-3 0 9995 2 43678 98.1081 132.8323 0007925 134.9730 225.2135 14.99177920382887 QO-100 1 43700U 18090A 25310.84567242 .00000152 00000-0 00000+0 0 9998 2 43700 0.0086 293.1861 0002776 334.2084 109.1544 1.00272385 25443 MinXSS-2 1 43758U 18099A 25310.14262138 .00031258 00000-0 10112-2 0 9998 2 43758 97.4853 17.0727 0009769 354.0353 6.0771 15.31956053379810 AO-95 1 43770U 18099N 25310.61590650 .00018009 00000-0 82135-3 0 9991 2 43770 97.4729 7.1898 0011014 55.7845 304.4433 15.20636309379325 SNUSat 2 1 43782U 18099AA 25310.59674265 .00013281 00000-0 66800-3 0 9994 2 43782 97.4409 2.6374 0011165 2.1960 357.9321 15.17303023379221 SnugLite 1 43784U 18099AC 25310.61199668 .00018409 00000-0 83170-3 0 9994 2 43784 97.4221 2.5792 0003260 21.1020 339.0350 15.21003393379419 ITASat 1 1 43786U 18099AE 25310.58537921 .00011180 00000-0 59606-3 0 9996 2 43786 97.4376 1.6619 0014802 52.0805 308.1763 15.15247483379157 EAGLET 1 1 43790U 18099AJ 25310.60968373 .00007626 00000-0 46474-3 0 9992 2 43790 97.4579 1.0796 0012625 40.6879 319.5292 15.10578676378701 ESEO 1 43792U 18099AL 25310.54039847 .00003812 00000-0 28515-3 0 9991 2 43792 97.4282 352.1956 0012559 16.8650 343.2991 15.03266176378341 JO-97 1 43803U 18099AX 25310.62008501 .00023636 00000-0 94215-3 0 9992 2 43803 97.4479 8.5877 0006285 350.8698 9.2425 15.25189639379601 Suomi 100 1 43804U 18099AY 25310.64255044 .00019632 00000-0 86077-3 0 9999 2 43804 97.4540 7.4102 0010982 351.4799 8.6249 15.21969716379490 ISAT 1 43879U 18111D 25310.74013812 .00050256 00000-0 13280-2 0 9994 2 43879 97.5892 229.1016 0009668 43.5407 316.6599 15.38222984376702 UWE-4 1 43880U 18111E 25309.23500265 .00025295 00000-0 82109-3 0 9993 2 43880 97.5840 224.7976 0013054 54.2851 305.9603 15.31855954376337 Sparrow 1 43881U 18111F 25310.77321372 .00053638 00000-0 13313-2 0 9997 2 43881 97.6073 232.6844 0009326 70.8276 289.3978 15.40130997376828 Prox-1 1 44339U 19036A 25310.67910029 .00021184 00000-0 24601-2 0 9998 2 44339 23.9945 153.3489 0007320 350.6980 9.3382 14.83818771340306 Taurus 1 1 44530U 19059C 25310.80021682 .00014001 00000-0 24324-2 0 9991 2 44530 98.6222 97.7010 0008784 285.5656 74.4577 14.68257542325968 Duchifat 3 1 44854U 19089C 25310.80961551 .00279683 00000-0 17918-2 0 9991 2 44854 36.9311 106.7797 0008699 14.7673 345.3345 15.74488600326424 TO-108 1 44881U 19093C 25310.81142539 .00001608 00000-0 18986-3 0 9991 2 44881 97.7796 23.2420 0015123 97.7257 262.5676 14.85975029318381 FloripaSat 1 1 44885U 19093G 25310.84337372 .00010567 00000-0 84084-3 0 9995 2 44885 97.8077 38.8807 0011954 83.3607 276.8976 15.00532851319266 RS-44 1 44909U 19096E 25310.50382742 .00000008 00000-0 -54823-5 0 9999 2 44909 82.5180 127.6906 0216677 305.1899 52.9079 12.79745151273867 SALSAT 1 46495U 20068K 25310.46384889 .00012836 00000-0 51013-3 0 9998 2 46495 97.8760 295.8091 0011212 13.0146 347.1378 15.25399385281355 CSS (TIANHE-1) 1 48274U 21035A 25310.84814990 .00040245 00000-0 47512-3 0 9997 2 48274 41.4667 234.6537 0005749 334.9809 25.0750 15.60545323258420 TUBIN 1 48900U 21059X 25310.80273538 .00224462 00000-0 97473-3 0 9998 2 48900 97.6686 134.2971 0001709 18.1208 342.0121 15.84241272243591 CUTE 1 49263U 21088D 25310.72285204 .00033045 00000-0 48549-3 0 9992 2 49263 97.4392 32.0384 0006224 54.1715 306.0117 15.55406714227699 TeikyoSat 4 1 49396U 21102B 25310.51744633 .00003859 00000-0 25177-3 0 9991 2 49396 97.3943 343.4739 0011883 346.5076 13.5834 15.08387587219146 Z-Sat 1 49399U 21102E 25310.87472404 .00007018 00000-0 36840-3 0 9997 2 49399 97.3627 347.8995 0016024 305.7863 54.1880 15.15918222219734 KOSEN 1 1 49402U 21102H 25310.57138394 .00012481 00000-0 53616-3 0 9996 2 49402 97.3527 352.2265 0013219 273.6477 86.3248 15.22738649220092 HO-113 1 50466U 21131B 25310.82283360 .00000891 00000-0 29062-3 0 9992 2 50466 98.5069 39.4247 0004921 56.8143 303.3517 14.41034244203084 SNUGLITE 2 1 52899U 22065F 25310.36742968 .00001849 00000-0 36441-3 0 9997 2 52899 98.1904 91.1157 0007612 12.0933 348.0451 14.63675767178399 UmKA 1 (RS40S) 1 57172U 23091G 25310.81244654 .00010067 00000-0 50507-3 0 9996 2 57172 97.5393 5.4416 0014101 167.7689 192.3889 15.17432881130241 CubeBel-2 (EU11S) 1 57175U 23091K 25310.79084904 .00017184 00000-0 73759-3 0 9997 2 57175 97.5390 7.6021 0011508 171.1283 189.0158 15.22717902130387 ENSO 1 58470U 23185J 25310.71288499 .02412422 23797-5 16177-2 0 9996 2 58470 97.3393 33.6303 0008707 270.8505 89.1785 16.16818727108584 SONATE-2 1 59112U 24043Q 25310.80782573 .00034067 00000-0 78596-3 0 9990 2 59112 97.5322 85.7955 0008911 296.5826 63.4507 15.42448587 93436 MO-122 1 60209U 24125G 25310.51254917 .00041977 00000-0 93963-3 0 9997 2 60209 97.2564 160.9289 0014973 322.6355 37.3850 15.43227581 75014 GRBBeta 1 60237U 24128C 25310.39620522 .00007372 00000-0 52396-3 0 9992 2 60237 61.9906 276.6447 0057111 88.9299 271.8335 15.04207794 72723 Curium One 1 60242U 24128H 25310.26979414 .00014111 00000-0 89365-3 0 9996 2 60242 61.9802 272.7848 0057115 85.4400 275.3214 15.07883366 72785 ROBUSTA-3A 1 60243U 24128J 25310.39100422 .00014156 00000-0 91150-3 0 9990 2 60243 61.9875 273.7392 0056841 83.0607 277.6947 15.07288711 72780 CatSat 1 60246U 24125J 25310.51900932 .00046947 00000-0 12634-2 0 9990 2 60246 97.2376 158.3693 0034718 279.1374 80.5944 15.37098216 72950 HYPERVIEW-1G (RS66S) 1 61772U 24199AP 25310.81878941 .00044074 00000-0 96025-3 0 9999 2 61772 97.3250 179.8957 0012329 22.2017 337.9762 15.44060416100063 AO-123 1 61781U 24199AY 25310.86599422 .00014394 00000-0 48195-3 0 9995 2 61781 97.3284 176.7272 0016092 30.2289 329.9878 15.30926978 99859 ZIMSAT 2 1 61783U 24199BA 25310.87953884 .00142213 00000-0 17566-2 0 9993 2 61783 97.3171 182.4424 0009740 21.5222 338.6442 15.59613478103399 HADES-R (SO-124) 1 62690U 25009CK 25309.70683572 .00140979 00000-0 27543-2 0 9999 2 62690 97.3959 31.2451 0003027 264.0763 96.0141 15.46934669 45039 HYDRA-T 1 62692U 25009CM 25310.16719125 .00142075 00000-0 26839-2 0 9993 2 62692 97.3954 31.8489 0003053 255.2884 104.8028 15.47905902 45118 JINJUSat 1B 1 63210U 25052A 25310.65167896 .00024384 00000-0 97714-3 0 9997 2 63210 97.4210 203.0735 0004977 127.4419 232.7272 15.25010590 36082 NUSHSAT 1 1 63211U 25052B 25310.66879308 .00026530 00000-0 10377-2 0 9991 2 63211 97.4194 203.1692 0004764 129.8297 230.3361 15.25803916 36097 TEVEL2-4 1 63213U 25052D 25310.19600998 .00025283 00000-0 10066-2 0 9997 2 63213 97.4119 202.3247 0003486 135.4051 224.7468 15.25228825 36011 TEVEL2-5 1 63214U 25052E 25310.65917047 .00025315 00000-0 10087-2 0 9994 2 63214 97.4115 202.7753 0003485 136.7130 223.4382 15.25199327 36087 TEVEL2-6 1 63215U 25052F 25310.66534907 .00025780 00000-0 10286-2 0 9993 2 63215 97.4118 202.7713 0003551 137.1440 223.0075 15.25152280 36082 TEVEL2-1 1 63217U 25052H 25310.17576222 .00025031 00000-0 10084-2 0 9992 2 63217 97.4093 202.1268 0003024 149.5283 210.6131 15.24833959 36007 TEVEL2-3 1 63218U 25052J 25310.43789433 .00025123 00000-0 10112-2 0 9996 2 63218 97.4095 202.3901 0003046 150.2227 209.9185 15.24862781 36046 TEVEL2-2 1 63219U 25052K 25310.43903644 .00024582 00000-0 99006-3 0 9997 2 63219 97.4093 202.3874 0003069 149.8997 210.2417 15.24846502 36043 TEVEL2-9 1 63237U 25052AD 25310.69594653 .00023543 00000-0 98795-3 0 9991 2 63237 97.4162 202.3962 0005934 192.2341 167.8752 15.23460196 36056 TEVEL2-7 1 63238U 25052AE 25310.64092586 .00023787 00000-0 10019-2 0 9997 2 63238 97.4161 202.3234 0006050 193.0788 167.0293 15.23333112 36040 TEVEL2-8 1 63239U 25052AF 25310.25179216 .00023305 00000-0 98310-3 0 9998 2 63239 97.4155 201.9252 0006054 195.7407 164.3642 15.23284552 35983 HYDRA-W 1 63490U 25052BL 25309.94736672 .00066419 00000-0 19311-2 0 9992 2 63490 97.4084 203.3717 0007264 178.8048 181.3214 15.35185466 36063 HADES-ICM (SO-125) 1 63492U 25052BN 25310.22970198 .00077865 00000-0 23518-2 0 9991 2 63492 97.4091 203.4741 0007570 185.7464 174.3693 15.33925454 36093 Dragonfly 1 65729U 98067XH 25310.29850792 .00128074 00000-0 14973-2 0 9990 2 65729 51.6311 320.7027 0003930 83.8399 276.3042 15.60650724 7450 RSP-03 1 65732U 98067XL 25310.82696374 .00096122 00000-0 11758-2 0 9993 2 65732 51.6307 318.2312 0005963 67.2249 292.9374 15.59593476 7546 GHS-01 1 65733U 98067XM 25310.60796127 .00129845 00000-0 14655-2 0 9995 2 65733 51.6317 319.0201 0004505 83.4178 276.7328 15.61556735 7512 BOTAN 1 65942U 98067XP 25310.23832496 .00095041 00000-0 13891-2 0 9997 2 65942 51.6323 322.5492 0004830 28.2597 331.8656 15.54833848 4176 /EX